Flag for Faroe Islands Weather past 2 weeks in Tórshavn, Faroe Islands, Faroe Islands

Now
59 °F

Low clouds.


Feels Like: 57 °F
Forecast: 55 / 58 °F
Wind: 10 mph from Southeast

Location: Soervaag / Vagar

Current Time: Jul 22, 2014 at 7:30:51 PM

Latest Report: Jul 22, 2014 at 5:50 PM


Visibility: N/A

Pressure: 30.24 "Hg

Humidity: 94%

Dew point: 57 °F

Location of TórshavnLocation

Historic Weather in Tórshavn — Graph

°F

Tórshavn temperature yesterday

Maximum temperature yesterday: 59 °F (at 12:50 PM)
Minimum temperature yesterday: 54 °F (at 12:20 AM)
Average temperature yesterday: 56 °F

Past Weeks' High & Low Weather Summary

 TemperatureHumidityPressure
High64 °F (Jul 20, 8:50 AM)100% (Jul 11, 6:50 PM)30.24 "Hg (Jul 11, 6:50 PM)
Low46 °F (Jul 9, 2:50 AM)63% (Jul 9, 8:51 AM)29.59 "Hg (Jul 13, 8:20 AM)
Average54 °F91%29.95 "Hg
* Reported Jul 7 5:20 PM — Jul 22 5:50 PM, Tórshavn, Weather by CustomWeather, © 2014

Note: Actual official high and low records may vary slightly from our data, if they occured in-between our weather recording intervals... More about our weather records

Advertising

Tórshavn weather history for previous 24 hours

 ConditionsComfort  
Time TempWeatherWind HumidityBarometerVisibility
5:50 PM
Jul 22
59 °FLow clouds.10 mph94%30.24 "HgN/A
5:20 PM59 °FLow clouds.10 mph100%30.24 "HgN/A
4:50 PM57 °FSprinkles. Low clouds.12 mph100%30.24 "Hg4 mi
4:20 PM57 °FFog.12 mph100%30.24 "Hg2 mi
3:50 PM59 °FFog.10 mph100%30.24 "Hg3 mi
3:20 PM57 °FFog.12 mph100%30.24 "Hg1 mi
2:50 PM57 °FFog.12 mph100%30.24 "Hg1 mi
2:20 PM57 °FFog.14 mph100%30.24 "Hg1 mi
1:50 PM57 °FFog.13 mph100%30.24 "Hg1 mi
1:20 PM57 °FFog.13 mph100%30.21 "Hg1 mi
12:50 PM59 °FFog.14 mph94%30.21 "Hg1 mi
12:20 PM57 °FFog.14 mph100%30.21 "Hg1 mi
11:50 AM57 °FFog.10 mph100%30.21 "Hg1 mi
11:20 AM57 °FSprinkles. Fog.9 mph100%30.21 "Hg2 mi
10:50 AM57 °FDrizzle. Fog.8 mph94%30.21 "Hg2 mi
10:20 AM59 °FPartly sunny.10 mph88%30.18 "HgN/A
9:50 AM59 °FPartly sunny.10 mph88%30.18 "HgN/A
9:20 AM59 °FPartly sunny.9 mph94%30.18 "HgN/A
8:50 AM57 °FPartly sunny.9 mph94%30.18 "HgN/A
8:20 AM57 °FLow clouds.10 mph94%30.18 "HgN/A
7:50 AM57 °FLow clouds.9 mph94%30.18 "HgN/A
7:20 AM57 °FLow clouds.7 mph88%30.18 "HgN/A
6:50 AM55 °FOvercast.8 mph94%30.18 "HgN/A
6:20 AM55 °FOvercast.7 mph88%30.15 "HgN/A
5:50 AM54 °FOvercast.2 mph94%30.15 "HgN/A
5:20 AM54 °FPassing clouds.5 mph94%30.15 "HgN/A
4:50 AM54 °FOvercast.2 mph94%30.15 "HgN/A
4:20 AM52 °FPassing clouds.2 mph100%30.15 "HgN/A
3:50 AM52 °FPassing clouds.3 mph94%30.15 "HgN/A
3:20 AM52 °FCool.1 mph94%30.15 "HgN/A
2:50 AM52 °FCool.3 mph94%30.15 "HgN/A
2:20 AM52 °FPassing clouds.5 mph94%30.15 "HgN/A
1:50 AM52 °FPassing clouds.6 mph100%30.15 "HgN/A
1:20 AM54 °FOvercast.3 mph94%30.15 "HgN/A
12:50 AM54 °FOvercast.3 mph94%30.15 "HgN/A
12:20 AM55 °FOvercast.3 mph94%30.15 "HgN/A
11:50 PM
Jul 21
55 °FOvercast.3 mph94%30.15 "HgN/A
11:20 PM55 °FOvercast.5 mph94%30.15 "HgN/A
10:20 PM54 °FLow clouds.5 mph100%30.12 "Hg4 mi
9:50 PM55 °FFog.5 mph94%30.12 "Hg1 mi
9:20 PM55 °FPartly sunny.3 mph100%30.12 "HgN/A
8:50 PM55 °FBroken clouds.5 mph100%30.12 "HgN/A
8:20 PM57 °FPartly sunny.6 mph94%30.12 "HgN/A
7:50 PM57 °FPartly sunny.6 mph94%30.09 "HgN/A
7:20 PM57 °FBroken clouds.6 mph94%30.09 "HgN/A
Weather by CustomWeather, © 2014

See weather overviewHow to use our weather pages